When you browse on this site, cookies collect data to enhance your experience and personalize the content and advertising you see.
Visit our Privacy Policy to learn more. By continuing to use the site, you agree to this use of cookies and data.
  • In Hungary
  • List of Countries
  • For 7 days
  • Water Temperature
  • Satellite Maps
  • Weather Map
  • News
  • Weather Widgets
  • user-avatar
    Login

    Hourly Weather Mansa

    Today, 18 January, Friday

    Time Temperature Precipitation Wind Pressure Humidity
    00:00 +18°C° 0 mm 1 mps 659 mmHg 94%
    01:00 +18°C° 0 mm 1 mps 659 mmHg 95%
    02:00 +18°C° 0 mm 1 mps 659 mmHg 96%
    03:00 +18°C° 0 mm 1 mps 659 mmHg 96%
    04:00 +18°C° 0 mm 1 mps 659 mmHg 97%
    05:00 +18°C° 0 mm 1 mps 659 mmHg 97%
    06:00 +19°C° 0 mm 1 mps 659 mmHg 95%
    07:00 +20°C° 0 mm 1 mps 660 mmHg 92%
    08:00 +20°C° 0 mm 2 mps 660 mmHg 90%
    09:00 +21°C° 0.4 mm 2 mps 660 mmHg 88%
    10:00 +22°C° 0.4 mm 3 mps 660 mmHg 85%
    11:00 +24°C° 0.4 mm 3 mps 661 mmHg 83%
    12:00 +25°C° 0.6 mm 3 mps 660 mmHg 81%
    13:00 +25°C° 0.6 mm 4 mps 660 mmHg 79%
    14:00 +25°C° 0.6 mm 4 mps 659 mmHg 77%
    15:00 +25°C° 0.1 mm 3 mps 659 mmHg 78%
    16:00 +25°C° 0.1 mm 3 mps 658 mmHg 79%
    17:00 +24°C° 0.1 mm 3 mps 658 mmHg 80%
    18:00 +23°C° 0 mm 2 mps 658 mmHg 85%
    19:00 +21°C° 0 mm 2 mps 658 mmHg 90%
    20:00 +20°C° 0 mm 1 mps 658 mmHg 95%
    21:00 +20°C° 0 mm 1 mps 658 mmHg 95%
    22:00 +20°C° 0 mm 1 mps 659 mmHg 96%
    23:00 +20°C° 0 mm 1 mps 659 mmHg 96%

    Tomorrow, 19 January, Saturday

    Time Temperature Precipitation Wind Pressure Humidity
    00:00 +20°C° 0.2 mm 1 mps 659 mmHg 96%
    01:00 +20°C° 0.2 mm 1 mps 659 mmHg 96%
    02:00 +19°C° 0.2 mm 1 mps 658 mmHg 97%
    03:00 +19°C° 0.2 mm 1 mps 658 mmHg 97%
    04:00 +19°C° 0.2 mm 1 mps 658 mmHg 97%
    05:00 +19°C° 0.2 mm 1 mps 658 mmHg 97%
    06:00 +20°C° 0.1 mm 1 mps 659 mmHg 96%
    07:00 +19°C° 0.1 mm 2 mps 659 mmHg 95%
    08:00 +20°C° 0.1 mm 2 mps 660 mmHg 94%
    09:00 +21°C° 0.1 mm 2 mps 660 mmHg 87%
    10:00 +22°C° 0.1 mm 3 mps 660 mmHg 81%
    11:00 +25°C° 0.1 mm 3 mps 661 mmHg 75%
    12:00 +25°C° 0.2 mm 3 mps 660 mmHg 75%
    13:00 +25°C° 0.2 mm 4 mps 660 mmHg 75%
    14:00 +25°C° 0.2 mm 4 mps 659 mmHg 76%
    15:00 +25°C° 0.4 mm 3 mps 659 mmHg 79%
    16:00 +25°C° 0.4 mm 3 mps 658 mmHg 82%
    17:00 +24°C° 0.4 mm 2 mps 658 mmHg 85%
    18:00 +23°C° 0.4 mm 2 mps 658 mmHg 89%
    19:00 +22°C° 0.4 mm 1 mps 659 mmHg 92%
    20:00 +21°C° 0.4 mm 1 mps 659 mmHg 95%
    21:00 +21°C° 0.4 mm 1 mps 660 mmHg 96%
    22:00 +21°C° 0.4 mm 1 mps 660 mmHg 96%
    23:00 +20°C° 0.4 mm 1 mps 661 mmHg 96%

    Day after tomorrow, 20 January, Sunday

    Time Temperature Precipitation Wind Pressure Humidity
    00:00 +19°C° 0.5 mm 2 mps 660 mmHg 97%
    01:00 +19°C° 0.5 mm 2 mps 660 mmHg 97%
    02:00 +19°C° 0.5 mm 2 mps 659 mmHg 98%
    03:00 +19°C° 0.7 mm 2 mps 659 mmHg 97%
    04:00 +19°C° 0.7 mm 2 mps 659 mmHg 97%
    05:00 +18°C° 0.7 mm 2 mps 659 mmHg 97%
    06:00 +18°C° 1.3 mm 2 mps 660 mmHg 97%
    07:00 +18°C° 1.3 mm 2 mps 660 mmHg 97%
    08:00 +18°C° 1.3 mm 2 mps 661 mmHg 97%
    09:00 +19°C° 1.5 mm 2 mps 661 mmHg 96%
    10:00 +19°C° 1.5 mm 3 mps 661 mmHg 95%
    11:00 +20°C° 1.5 mm 3 mps 661 mmHg 94%
    12:00 +21°C° 0.4 mm 4 mps 661 mmHg 89%
    13:00 +22°C° 0.4 mm 5 mps 660 mmHg 83%
    14:00 +23°C° 0.4 mm 5 mps 660 mmHg 78%
    15:00 +23°C° 0 mm 5 mps 660 mmHg 77%
    16:00 +22°C° 0 mm 5 mps 660 mmHg 77%
    17:00 +22°C° 0 mm 4 mps 660 mmHg 76%
    18:00 +21°C° 0 mm 4 mps 660 mmHg 81%
    19:00 +20°C° 0 mm 3 mps 660 mmHg 85%
    20:00 +18°C° 0 mm 2 mps 660 mmHg 90%
    21:00 +18°C° 0.1 mm 2 mps 660 mmHg 90%
    22:00 +18°C° 0.1 mm 2 mps 661 mmHg 90%
    23:00 +18°C° 0.1 mm 2 mps 661 mmHg 90%

    21 January, Monday

    Time Temperature Precipitation Wind Pressure Humidity
    00:00 +17°C° 0.3 mm 2 mps 660 mmHg 92%
    01:00 +17°C° 0.3 mm 2 mps 660 mmHg 94%
    02:00 +17°C° 0.3 mm 2 mps 659 mmHg 96%
    03:00 +17°C° 0.4 mm 2 mps 660 mmHg 97%
    04:00 +18°C° 0.4 mm 1 mps 660 mmHg 97%
    05:00 +18°C° 0.4 mm 1 mps 660 mmHg 97%
    06:00 +18°C° 1.5 mm 1 mps 660 mmHg 97%
    07:00 +18°C° 1.5 mm 1 mps 661 mmHg 97%
    08:00 +18°C° 1.5 mm 1 mps 661 mmHg 98%
    09:00 +19°C° 1.6 mm 1 mps 661 mmHg 97%
    10:00 +17°C° 1.6 mm 0 mps 661 mmHg 97%
    11:00 +17°C° 1.6 mm 0 mps 661 mmHg 96%
    12:00 +18°C° 0.2 mm 0 mps 660 mmHg 95%
    13:00 +18°C° 0.2 mm 0 mps 659 mmHg 94%
    14:00 +21°C° 0.2 mm 1 mps 658 mmHg 92%
    15:00 +22°C° 0.5 mm 1 mps 658 mmHg 89%
    16:00 +23°C° 0.5 mm 1 mps 658 mmHg 87%
    17:00 +24°C° 0.5 mm 1 mps 658 mmHg 84%
    18:00 +23°C° 1.1 mm 1 mps 658 mmHg 88%
    19:00 +22°C° 1.1 mm 1 mps 659 mmHg 92%
    20:00 +20°C° 1.1 mm 1 mps 659 mmHg 96%
    21:00 +20°C° 0.3 mm 1 mps 659 mmHg 96%
    22:00 +20°C° 0.3 mm 1 mps 660 mmHg 96%
    23:00 +20°C° 0.3 mm 1 mps 660 mmHg 96%

    22 January, Tuesday

    Time Temperature Precipitation Wind Pressure Humidity
    00:00 +20°C° 0.8 mm 1 mps 660 mmHg 96%
    01:00 +20°C° 0.8 mm 1 mps 659 mmHg 97%
    02:00 +20°C° 0.8 mm 1 mps 659 mmHg 97%
    03:00 +20°C° 0.9 mm 1 mps 659 mmHg 98%
    04:00 +20°C° 0.9 mm 1 mps 659 mmHg 98%
    05:00 +20°C° 0.9 mm 1 mps 659 mmHg 98%
    06:00 +20°C° 0.1 mm 1 mps 659 mmHg 97%
    07:00 +20°C° 0.1 mm 1 mps 660 mmHg 96%
    08:00 +20°C° 0.1 mm 2 mps 660 mmHg 95%
    09:00 +21°C° 0.3 mm 2 mps 660 mmHg 90%
    10:00 +22°C° 0.3 mm 3 mps 660 mmHg 85%
    11:00 +25°C° 0.3 mm 3 mps 661 mmHg 80%
    12:00 +25°C° 0.7 mm 3 mps 660 mmHg 81%
    13:00 +25°C° 0.7 mm 3 mps 659 mmHg 82%
    14:00 +25°C° 0.7 mm 3 mps 658 mmHg 83%
    15:00 +25°C° 0.6 mm 3 mps 658 mmHg 84%
    16:00 +25°C° 0.6 mm 2 mps 658 mmHg 85%
    17:00 +25°C° 0.6 mm 2 mps 657 mmHg 86%
    18:00 +24°C° 0.7 mm 2 mps 658 mmHg 89%
    19:00 +21°C° 0.7 mm 2 mps 658 mmHg 92%
    20:00 +21°C° 0.7 mm 1 mps 658 mmHg 95%
    21:00 +20°C° 0.5 mm 2 mps 658 mmHg 95%
    22:00 +20°C° 0.5 mm 2 mps 658 mmHg 95%
    23:00 +20°C° 0.5 mm 2 mps 659 mmHg 96%

    23 January, Wednesday

    Time Temperature Precipitation Wind Pressure Humidity
    00:00 +20°C° 1.4 mm 2 mps 658 mmHg 96%
    01:00 +19°C° 1.4 mm 2 mps 658 mmHg 96%
    02:00 +19°C° 1.4 mm 2 mps 658 mmHg 97%
    03:00 +19°C° 1.4 mm 2 mps 658 mmHg 97%
    04:00 +20°C° 1.4 mm 1 mps 658 mmHg 97%
    05:00 +20°C° 1.4 mm 1 mps 658 mmHg 98%
    06:00 +20°C° 1.2 mm 1 mps 658 mmHg 98%
    07:00 +20°C° 1.2 mm 1 mps 659 mmHg 97%
    08:00 +20°C° 1.2 mm 1 mps 659 mmHg 97%
    09:00 +22°C° 0.4 mm 1 mps 659 mmHg 93%
    10:00 +23°C° 0.4 mm 2 mps 659 mmHg 88%
    11:00 +25°C° 0.4 mm 2 mps 659 mmHg 83%
    12:00 +26°C° 0.4 mm 3 mps 659 mmHg 79%
    13:00 +27°C° 0.4 mm 3 mps 658 mmHg 74%
    14:00 +28°C° 0.4 mm 3 mps 658 mmHg 69%
    15:00 +27°C° 0.9 mm 3 mps 657 mmHg 75%
    16:00 +26°C° 0.9 mm 2 mps 657 mmHg 81%
    17:00 +25°C° 0.9 mm 2 mps 656 mmHg 88%
    18:00 +24°C° 0.7 mm 1 mps 657 mmHg 89%
    19:00 +23°C° 0.7 mm 1 mps 657 mmHg 91%
    20:00 +21°C° 0.7 mm 1 mps 657 mmHg 93%
    21:00 +21°C° 1.2 mm 1 mps 658 mmHg 93%
    22:00 +21°C° 1.2 mm 1 mps 658 mmHg 94%
    23:00 +21°C° 1.2 mm 1 mps 658 mmHg 94%
    Show more